Year,Month,Day,Hour,Minute,Value (Times are PST for windspeed in km/hr)
2008,02,07,00,00,0.40
2008,02,07,00,01,4.30
2008,02,07,00,02,3.10
2008,02,07,00,03,5.40
2008,02,07,00,04,1.90
2008,02,07,00,05,1.40
2008,02,07,00,06,0.30
2008,02,07,00,07,1.40
2008,02,07,00,08,0.00
2008,02,07,00,09,0.00
2008,02,07,00,10,0.60
2008,02,07,00,11,0.40
2008,02,07,00,12,0.40
2008,02,07,00,13,0.00
2008,02,07,00,14,0.00
2008,02,07,00,15,1.00
2008,02,07,00,16,0.10
2008,02,07,00,17,0.00
2008,02,07,00,18,0.00
2008,02,07,00,19,0.00
2008,02,07,00,20,0.00
2008,02,07,00,21,0.10
2008,02,07,00,22,0.70
2008,02,07,00,23,4.80
2008,02,07,00,24,0.80
2008,02,07,00,25,3.10
2008,02,07,00,26,0.00
2008,02,07,00,27,0.00
2008,02,07,00,28,0.30
2008,02,07,00,29,0.50
2008,02,07,00,30,0.90
2008,02,07,00,31,0.30
2008,02,07,00,32,2.30
2008,02,07,00,33,3.50
2008,02,07,00,34,1.70
2008,02,07,00,35,1.30
2008,02,07,00,36,2.60
2008,02,07,00,37,2.10
2008,02,07,00,38,3.10
2008,02,07,00,39,2.30
2008,02,07,00,40,3.80
2008,02,07,00,41,4.50
2008,02,07,00,42,4.40
2008,02,07,00,43,5.50
2008,02,07,00,44,5.80
2008,02,07,00,45,5.10
2008,02,07,00,46,16.50
2008,02,07,00,47,6.00
2008,02,07,00,48,6.90
2008,02,07,00,49,5.90
2008,02,07,00,50,8.80
2008,02,07,00,51,4.30
2008,02,07,00,52,4.40
2008,02,07,00,53,8.50
2008,02,07,00,54,5.60
2008,02,07,00,55,5.30
2008,02,07,00,56,9.70
2008,02,07,00,57,13.30
2008,02,07,00,58,8.20
2008,02,07,00,59,15.70
2008,02,07,01,00,15.70
2008,02,07,01,01,11.80
2008,02,07,01,02,17.10
2008,02,07,01,03,14.10
2008,02,07,01,04,15.70
2008,02,07,01,05,19.90
2008,02,07,01,06,26.80
2008,02,07,01,07,18.00
2008,02,07,01,08,19.00
2008,02,07,01,09,22.80
2008,02,07,01,10,17.30
2008,02,07,01,11,17.90
2008,02,07,01,12,15.80
2008,02,07,01,13,18.20
2008,02,07,01,14,22.20
2008,02,07,01,15,21.30
2008,02,07,01,16,13.40
2008,02,07,01,17,15.00
2008,02,07,01,18,16.80
2008,02,07,01,19,18.20
2008,02,07,01,20,17.50
2008,02,07,01,21,15.60
2008,02,07,01,22,15.10
2008,02,07,01,23,13.50
2008,02,07,01,24,16.20
2008,02,07,01,25,19.50
2008,02,07,01,26,18.00
2008,02,07,01,27,10.20
2008,02,07,01,28,21.00
2008,02,07,01,29,20.60
2008,02,07,01,30,21.40
2008,02,07,01,31,21.00
2008,02,07,01,32,16.50
2008,02,07,01,33,26.00
2008,02,07,01,34,24.80
2008,02,07,01,35,20.70
2008,02,07,01,36,20.70
2008,02,07,01,37,21.50
2008,02,07,01,38,23.20
2008,02,07,01,39,20.80
2008,02,07,01,40,26.50
2008,02,07,01,41,14.90
2008,02,07,01,42,15.60
2008,02,07,01,43,18.90
2008,02,07,01,44,13.70
2008,02,07,01,45,16.40
2008,02,07,01,46,20.90
2008,02,07,01,47,11.80
2008,02,07,01,48,11.00
2008,02,07,01,49,16.10
2008,02,07,01,50,15.60
2008,02,07,01,51,11.00
2008,02,07,01,52,8.00
2008,02,07,01,53,10.80
2008,02,07,01,54,8.40
2008,02,07,01,55,11.40
2008,02,07,01,56,12.80
2008,02,07,01,57,14.30
2008,02,07,01,58,18.40
2008,02,07,01,59,10.50
2008,02,07,02,00,6.90
2008,02,07,02,01,10.10
2008,02,07,02,02,13.20
2008,02,07,02,03,12.10
2008,02,07,02,04,12.80
2008,02,07,02,05,18.20
2008,02,07,02,06,15.60
2008,02,07,02,07,10.60
2008,02,07,02,08,10.80
2008,02,07,02,09,25.90
2008,02,07,02,10,24.50
2008,02,07,02,11,14.70
2008,02,07,02,12,17.60
2008,02,07,02,13,19.00
2008,02,07,02,14,15.10
2008,02,07,02,15,27.80
2008,02,07,02,16,29.20
2008,02,07,02,17,20.60
2008,02,07,02,18,14.80
2008,02,07,02,19,14.60
2008,02,07,02,20,17.40
2008,02,07,02,21,22.50
2008,02,07,02,22,18.00
2008,02,07,02,23,19.60
2008,02,07,02,24,12.60
2008,02,07,02,25,20.20
2008,02,07,02,26,26.60
2008,02,07,02,27,14.00
2008,02,07,02,28,16.20
2008,02,07,02,29,12.50
2008,02,07,02,30,22.20
2008,02,07,02,31,20.60
2008,02,07,02,32,9.60
2008,02,07,02,33,15.00
2008,02,07,02,34,20.80
2008,02,07,02,35,18.40
2008,02,07,02,36,13.50
2008,02,07,02,37,10.70
2008,02,07,02,38,9.50
2008,02,07,02,39,10.50
2008,02,07,02,40,19.60
2008,02,07,02,41,16.70
2008,02,07,02,42,16.00
2008,02,07,02,43,13.00
2008,02,07,02,44,16.30
2008,02,07,02,45,11.20
2008,02,07,02,46,13.20
2008,02,07,02,47,22.80
2008,02,07,02,48,16.60
2008,02,07,02,49,13.90
2008,02,07,02,50,24.80
2008,02,07,02,51,18.10
2008,02,07,02,52,18.00
2008,02,07,02,53,19.10
2008,02,07,02,54,15.40
2008,02,07,02,55,18.30
2008,02,07,02,56,18.50
2008,02,07,02,57,12.50
2008,02,07,02,58,23.30
2008,02,07,02,59,13.60
2008,02,07,03,00,18.60
2008,02,07,03,01,27.30
2008,02,07,03,02,18.80
2008,02,07,03,03,25.60
2008,02,07,03,04,17.30
2008,02,07,03,05,27.40
2008,02,07,03,06,16.30
2008,02,07,03,07,14.60
2008,02,07,03,08,21.60
2008,02,07,03,09,26.20
2008,02,07,03,10,22.40
2008,02,07,03,11,12.30
2008,02,07,03,12,19.10
2008,02,07,03,13,14.10
2008,02,07,03,14,26.60
2008,02,07,03,15,14.50
2008,02,07,03,16,17.30
2008,02,07,03,17,13.30
2008,02,07,03,18,17.00
2008,02,07,03,19,9.80
2008,02,07,03,20,13.00
2008,02,07,03,21,21.30
2008,02,07,03,22,18.20
2008,02,07,03,23,23.00
2008,02,07,03,24,25.50
2008,02,07,03,25,23.90
2008,02,07,03,26,16.90
2008,02,07,03,27,19.30
2008,02,07,03,28,33.20
2008,02,07,03,29,19.80
2008,02,07,03,30,15.30
2008,02,07,03,31,17.00
2008,02,07,03,32,14.50
2008,02,07,03,33,15.30
2008,02,07,03,34,15.50
2008,02,07,03,35,17.30
2008,02,07,03,36,18.30
2008,02,07,03,37,18.10
2008,02,07,03,38,25.30
2008,02,07,03,39,21.10
2008,02,07,03,40,17.50
2008,02,07,03,41,17.00
2008,02,07,03,42,24.00
2008,02,07,03,43,19.40
2008,02,07,03,44,13.60
2008,02,07,03,45,13.90
2008,02,07,03,46,19.20
2008,02,07,03,47,20.20
2008,02,07,03,48,20.00
2008,02,07,03,49,23.30
2008,02,07,03,50,18.10
2008,02,07,03,51,18.00
2008,02,07,03,52,17.50
2008,02,07,03,53,23.00
2008,02,07,03,54,19.10
2008,02,07,03,55,24.10
2008,02,07,03,56,12.80
2008,02,07,03,57,16.20
2008,02,07,03,58,16.30
2008,02,07,03,59,18.00
2008,02,07,04,00,21.50
2008,02,07,04,01,13.70
2008,02,07,04,02,17.70
2008,02,07,04,03,13.60
2008,02,07,04,04,20.90
2008,02,07,04,05,15.60
2008,02,07,04,06,17.30
2008,02,07,04,07,13.50
2008,02,07,04,08,19.30
2008,02,07,04,09,18.30
2008,02,07,04,10,20.20
2008,02,07,04,11,10.50
2008,02,07,04,12,22.60
2008,02,07,04,13,20.20
2008,02,07,04,14,12.70
2008,02,07,04,15,13.90
2008,02,07,04,16,17.70
2008,02,07,04,17,21.20
2008,02,07,04,18,14.80
2008,02,07,04,19,17.60
2008,02,07,04,20,13.70
2008,02,07,04,21,9.60
2008,02,07,04,22,18.40
2008,02,07,04,23,14.90
2008,02,07,04,24,19.80
2008,02,07,04,25,19.80
2008,02,07,04,26,16.40
2008,02,07,04,27,20.30
2008,02,07,04,28,9.00
2008,02,07,04,29,18.50
2008,02,07,04,30,14.50
2008,02,07,04,31,18.70
2008,02,07,04,32,17.60
2008,02,07,04,33,19.90
2008,02,07,04,34,19.70
2008,02,07,04,35,20.60
2008,02,07,04,36,18.00
2008,02,07,04,37,21.40
2008,02,07,04,38,19.50
2008,02,07,04,39,13.10
2008,02,07,04,40,11.00
2008,02,07,04,41,24.30
2008,02,07,04,42,17.40
2008,02,07,04,43,14.70
2008,02,07,04,44,15.40
2008,02,07,04,45,20.50
2008,02,07,04,46,16.50
2008,02,07,04,47,15.20
2008,02,07,04,48,15.80
2008,02,07,04,49,20.90
2008,02,07,04,50,18.70
2008,02,07,04,51,25.40
2008,02,07,04,52,15.40
2008,02,07,04,53,15.50
2008,02,07,04,54,13.80
2008,02,07,04,55,18.50
2008,02,07,04,56,19.50
2008,02,07,04,57,17.40
2008,02,07,04,58,17.60
2008,02,07,04,59,12.10
2008,02,07,05,00,15.60
2008,02,07,05,01,20.70
2008,02,07,05,02,13.10
2008,02,07,05,03,13.80
2008,02,07,05,04,10.10
2008,02,07,05,05,11.40
2008,02,07,05,06,15.50
2008,02,07,05,07,17.10
2008,02,07,05,08,13.90
2008,02,07,05,09,16.80
2008,02,07,05,10,13.10
2008,02,07,05,11,16.00
2008,02,07,05,12,16.70
2008,02,07,05,13,21.50
2008,02,07,05,14,19.30
2008,02,07,05,15,10.90
2008,02,07,05,16,11.90
2008,02,07,05,17,14.60
2008,02,07,05,18,12.00
2008,02,07,05,19,22.90
2008,02,07,05,20,23.00
2008,02,07,05,21,22.40
2008,02,07,05,22,19.10
2008,02,07,05,23,16.10
2008,02,07,05,24,15.30
2008,02,07,05,25,20.90
2008,02,07,05,26,17.20
2008,02,07,05,27,11.70
2008,02,07,05,28,10.50
2008,02,07,05,29,18.10
2008,02,07,05,30,16.60
2008,02,07,05,31,16.50
2008,02,07,05,32,16.20
2008,02,07,05,33,15.30
2008,02,07,05,34,16.40
2008,02,07,05,35,11.50
2008,02,07,05,36,11.40
2008,02,07,05,37,13.00
2008,02,07,05,38,13.30
2008,02,07,05,39,12.20
2008,02,07,05,40,21.80
2008,02,07,05,41,19.20
2008,02,07,05,42,12.30
2008,02,07,05,43,15.60
2008,02,07,05,44,17.30
2008,02,07,05,45,20.00
2008,02,07,05,46,20.50
2008,02,07,05,47,14.20
2008,02,07,05,48,13.50
2008,02,07,05,49,17.50
2008,02,07,05,50,10.30
2008,02,07,05,51,12.70
2008,02,07,05,52,17.40
2008,02,07,05,53,20.90
2008,02,07,05,54,18.60
2008,02,07,05,55,11.80
2008,02,07,05,56,18.10
2008,02,07,05,57,19.50
2008,02,07,05,58,18.20
2008,02,07,05,59,16.40
2008,02,07,06,00,11.70
2008,02,07,06,01,11.50
2008,02,07,06,02,14.70
2008,02,07,06,03,12.70
2008,02,07,06,04,22.80
2008,02,07,06,05,11.30
2008,02,07,06,06,14.40
2008,02,07,06,07,16.60
2008,02,07,06,08,14.50
2008,02,07,06,09,13.00
2008,02,07,06,10,19.00
2008,02,07,06,11,27.40
2008,02,07,06,12,22.40
2008,02,07,06,13,8.70
2008,02,07,06,14,23.40
2008,02,07,06,15,22.10
2008,02,07,06,16,14.70
2008,02,07,06,17,12.70
2008,02,07,06,18,10.80
2008,02,07,06,19,8.80
2008,02,07,06,20,20.50
2008,02,07,06,21,19.60
2008,02,07,06,22,21.60
2008,02,07,06,23,19.60
2008,02,07,06,24,14.50
2008,02,07,06,25,15.30
2008,02,07,06,26,11.60
2008,02,07,06,27,15.70
2008,02,07,06,28,18.00
2008,02,07,06,29,12.90
2008,02,07,06,30,26.20
2008,02,07,06,31,17.10
2008,02,07,06,32,14.60
2008,02,07,06,33,15.90
2008,02,07,06,34,12.20
2008,02,07,06,35,11.50
2008,02,07,06,36,11.40
2008,02,07,06,37,9.70
2008,02,07,06,38,7.10
2008,02,07,06,39,15.50
2008,02,07,06,40,14.20
2008,02,07,06,41,13.40
2008,02,07,06,42,17.40
2008,02,07,06,43,17.30
2008,02,07,06,44,15.70
2008,02,07,06,45,15.20
2008,02,07,06,46,18.40
2008,02,07,06,47,13.90
2008,02,07,06,48,24.90
2008,02,07,06,49,22.40
2008,02,07,06,50,12.80
2008,02,07,06,51,9.60
2008,02,07,06,52,15.90
2008,02,07,06,53,16.50
2008,02,07,06,54,16.30
2008,02,07,06,55,19.10
2008,02,07,06,56,11.90
2008,02,07,06,57,13.70
2008,02,07,06,58,8.90
2008,02,07,06,59,10.80
2008,02,07,07,00,20.20
2008,02,07,07,01,8.10
2008,02,07,07,02,14.40
2008,02,07,07,03,16.80
2008,02,07,07,04,15.10
2008,02,07,07,05,13.30
2008,02,07,07,06,20.70
2008,02,07,07,07,19.80
2008,02,07,07,08,18.10
2008,02,07,07,09,10.70
2008,02,07,07,10,15.50
2008,02,07,07,11,15.80
2008,02,07,07,12,15.80
2008,02,07,07,13,17.00
2008,02,07,07,14,11.90
2008,02,07,07,15,11.40
2008,02,07,07,16,12.50
2008,02,07,07,17,16.80
2008,02,07,07,18,17.90
2008,02,07,07,19,19.60
2008,02,07,07,20,10.40
2008,02,07,07,21,13.00
2008,02,07,07,22,14.00
2008,02,07,07,23,7.90
2008,02,07,07,24,13.90
2008,02,07,07,25,15.80
2008,02,07,07,26,19.90
2008,02,07,07,27,11.90
2008,02,07,07,28,11.50
2008,02,07,07,29,8.70
2008,02,07,07,30,11.70
2008,02,07,07,31,15.60
2008,02,07,07,32,16.80
2008,02,07,07,33,14.30
2008,02,07,07,34,10.10
2008,02,07,07,35,12.20
2008,02,07,07,36,15.80
2008,02,07,07,37,19.30
2008,02,07,07,38,13.10
2008,02,07,07,39,8.90
2008,02,07,07,40,22.50
2008,02,07,07,41,20.20
2008,02,07,07,42,13.40
2008,02,07,07,43,12.70
2008,02,07,07,44,12.60
2008,02,07,07,45,9.20
2008,02,07,07,46,12.80
2008,02,07,07,47,17.20
2008,02,07,07,48,17.80
2008,02,07,07,49,17.80
2008,02,07,07,50,8.50
2008,02,07,07,51,10.10
2008,02,07,07,52,14.20
2008,02,07,07,53,23.30
2008,02,07,07,54,16.50
2008,02,07,07,55,15.40
2008,02,07,07,56,18.40
2008,02,07,07,57,21.60
2008,02,07,07,58,14.50
2008,02,07,07,59,17.30
2008,02,07,08,00,11.60
2008,02,07,08,01,15.00
2008,02,07,08,02,10.60
2008,02,07,08,03,18.40
2008,02,07,08,04,19.80
2008,02,07,08,05,16.10
2008,02,07,08,06,11.50
2008,02,07,08,07,13.00
2008,02,07,08,08,14.00
2008,02,07,08,09,18.90
2008,02,07,08,10,21.90
2008,02,07,08,11,20.50
2008,02,07,08,12,14.60
2008,02,07,08,13,11.10
2008,02,07,08,14,18.50
2008,02,07,08,15,12.10
2008,02,07,08,16,15.00
2008,02,07,08,17,12.50
2008,02,07,08,18,12.20
2008,02,07,08,19,17.90
2008,02,07,08,20,19.30
2008,02,07,08,21,17.40
2008,02,07,08,22,12.10
2008,02,07,08,23,12.80
2008,02,07,08,24,16.20
2008,02,07,08,25,18.00
2008,02,07,08,26,25.80
2008,02,07,08,27,16.80
2008,02,07,08,28,12.20
2008,02,07,08,29,12.30
2008,02,07,08,30,14.30
2008,02,07,08,31,14.20
2008,02,07,08,32,14.00
2008,02,07,08,33,11.80
2008,02,07,08,34,9.60
2008,02,07,08,35,8.10
2008,02,07,08,36,8.10
2008,02,07,08,37,8.10
2008,02,07,08,38,10.10
2008,02,07,08,39,14.30
2008,02,07,08,40,12.90
2008,02,07,08,41,15.60
2008,02,07,08,42,11.30
2008,02,07,08,43,16.40
2008,02,07,08,44,17.10
2008,02,07,08,45,17.90
2008,02,07,08,46,11.40
2008,02,07,08,47,8.70
2008,02,07,08,48,12.40
2008,02,07,08,49,11.30
2008,02,07,08,50,12.20
2008,02,07,08,51,19.20
2008,02,07,08,52,14.20
2008,02,07,08,53,15.00
2008,02,07,08,54,15.00
2008,02,07,08,55,18.90
2008,02,07,08,56,15.70
2008,02,07,08,57,18.80
2008,02,07,08,58,16.60
2008,02,07,08,59,16.70
2008,02,07,09,00,15.60
2008,02,07,09,01,12.30
2008,02,07,09,02,10.60
2008,02,07,09,03,14.60
2008,02,07,09,04,14.10
2008,02,07,09,05,17.60
2008,02,07,09,06,23.20
2008,02,07,09,07,13.40
2008,02,07,09,08,8.40
2008,02,07,09,09,13.40
2008,02,07,09,10,12.20
2008,02,07,09,11,7.90
2008,02,07,09,12,11.90
2008,02,07,09,13,15.20
2008,02,07,09,14,15.20
2008,02,07,09,15,13.90
2008,02,07,09,16,12.90
2008,02,07,09,17,13.80
2008,02,07,09,18,6.30
2008,02,07,09,19,8.50
2008,02,07,09,20,9.40
2008,02,07,09,21,10.00
2008,02,07,09,22,5.90
2008,02,07,09,23,8.10
2008,02,07,09,24,8.90
2008,02,07,09,25,10.00
2008,02,07,09,26,14.30
2008,02,07,09,27,20.60
2008,02,07,09,28,20.10
2008,02,07,09,29,10.10
2008,02,07,09,30,8.20
2008,02,07,09,31,10.30
2008,02,07,09,32,16.50
2008,02,07,09,33,14.60
2008,02,07,09,34,10.60
2008,02,07,09,35,6.50
2008,02,07,09,36,7.40
2008,02,07,09,37,15.90
2008,02,07,09,38,7.80
2008,02,07,09,39,9.30
2008,02,07,09,40,10.50
2008,02,07,09,41,11.70
2008,02,07,09,42,9.90
2008,02,07,09,43,9.20
2008,02,07,09,44,12.80
2008,02,07,09,45,8.40
2008,02,07,09,46,10.10
2008,02,07,09,47,18.90
2008,02,07,09,48,8.70
2008,02,07,09,49,8.90
2008,02,07,09,50,9.70
2008,02,07,09,51,6.90
2008,02,07,09,52,21.80
2008,02,07,09,53,10.80
2008,02,07,09,54,17.50
2008,02,07,09,55,13.50
2008,02,07,09,56,12.40
2008,02,07,09,57,11.50
2008,02,07,09,58,11.40
2008,02,07,09,59,7.70
2008,02,07,10,00,10.50
2008,02,07,10,01,13.00
2008,02,07,10,02,13.80
2008,02,07,10,03,10.10
2008,02,07,10,04,15.20
2008,02,07,10,05,14.60
2008,02,07,10,06,14.60
2008,02,07,10,07,15.50
2008,02,07,10,08,9.30
2008,02,07,10,09,8.20
2008,02,07,10,10,16.40
2008,02,07,10,11,17.90
2008,02,07,10,12,13.00
2008,02,07,10,13,18.80
2008,02,07,10,14,14.60
2008,02,07,10,15,5.80
2008,02,07,10,16,13.20
2008,02,07,10,17,9.70
2008,02,07,10,18,10.00
2008,02,07,10,19,14.60
2008,02,07,10,20,17.00
2008,02,07,10,21,18.00
2008,02,07,10,22,15.60
2008,02,07,10,23,11.40
2008,02,07,10,24,8.20
2008,02,07,10,25,15.30
2008,02,07,10,26,10.70
2008,02,07,10,27,16.50
2008,02,07,10,28,9.90
2008,02,07,10,29,8.00
2008,02,07,10,30,11.40
2008,02,07,10,31,12.90
2008,02,07,10,32,16.50
2008,02,07,10,33,7.60
2008,02,07,10,34,13.30
2008,02,07,10,35,8.40
2008,02,07,10,36,14.70
2008,02,07,10,37,19.00
2008,02,07,10,38,15.70
2008,02,07,10,39,11.10
2008,02,07,10,40,6.10
2008,02,07,10,41,5.80
2008,02,07,10,42,11.50
2008,02,07,10,43,8.50
2008,02,07,10,44,10.60
2008,02,07,10,45,21.20
2008,02,07,10,46,12.30
2008,02,07,10,47,10.90
2008,02,07,10,48,15.60
2008,02,07,10,49,12.40
2008,02,07,10,50,20.50
2008,02,07,10,51,13.20
2008,02,07,10,52,14.60
2008,02,07,10,53,24.70
2008,02,07,10,54,14.60
2008,02,07,10,55,16.50
2008,02,07,10,56,14.80
2008,02,07,10,57,21.70
2008,02,07,10,58,15.60
2008,02,07,10,59,20.50
2008,02,07,11,00,20.00
2008,02,07,11,01,9.60
2008,02,07,11,02,15.20
2008,02,07,11,03,13.80
2008,02,07,11,04,10.60
2008,02,07,11,05,7.50
2008,02,07,11,06,10.80
2008,02,07,11,07,9.10
2008,02,07,11,08,13.40
2008,02,07,11,09,17.00
2008,02,07,11,10,10.40
2008,02,07,11,11,17.70
2008,02,07,11,12,10.40
2008,02,07,11,13,13.80
2008,02,07,11,14,20.10
2008,02,07,11,15,10.80
2008,02,07,11,16,17.40
2008,02,07,11,17,16.40
2008,02,07,11,18,14.90
2008,02,07,11,19,18.70
2008,02,07,11,20,12.50
2008,02,07,11,21,11.70
2008,02,07,11,22,19.30
2008,02,07,11,23,12.60
2008,02,07,11,24,17.00
2008,02,07,11,25,18.10
2008,02,07,11,26,18.60
2008,02,07,11,27,14.00
2008,02,07,11,28,14.80
2008,02,07,11,29,15.70
2008,02,07,11,30,11.10
2008,02,07,11,31,18.20
2008,02,07,11,32,10.40
2008,02,07,11,33,20.70
2008,02,07,11,34,23.90
2008,02,07,11,35,17.00
2008,02,07,11,36,20.10
2008,02,07,11,37,11.30
2008,02,07,11,38,22.90
2008,02,07,11,39,8.30
2008,02,07,11,40,11.60
2008,02,07,11,41,14.80
2008,02,07,11,42,14.30
2008,02,07,11,43,10.90
2008,02,07,11,44,12.60
2008,02,07,11,45,11.50
2008,02,07,11,46,11.00
2008,02,07,11,47,18.00
2008,02,07,11,48,8.80
2008,02,07,11,49,16.70
2008,02,07,11,50,16.50
2008,02,07,11,51,11.70
2008,02,07,11,52,19.80
2008,02,07,11,53,10.70
2008,02,07,11,54,7.50
2008,02,07,11,55,11.80
2008,02,07,11,56,11.80
2008,02,07,11,57,6.90
2008,02,07,11,58,7.30
2008,02,07,11,59,6.60
2008,02,07,12,02,8.60
2008,02,07,12,03,7.20
2008,02,07,12,04,9.80
2008,02,07,12,05,13.50
2008,02,07,12,06,7.70
2008,02,07,12,07,10.60
2008,02,07,12,08,8.30
2008,02,07,12,09,18.20
2008,02,07,12,10,17.10
2008,02,07,12,11,13.10
2008,02,07,12,12,20.60
2008,02,07,12,13,17.90
2008,02,07,12,14,16.30
2008,02,07,12,15,14.80
2008,02,07,12,16,12.50
2008,02,07,12,17,9.60
2008,02,07,12,18,9.70
2008,02,07,12,19,14.70
2008,02,07,12,20,8.50
2008,02,07,12,21,6.00
2008,02,07,12,22,11.20
2008,02,07,12,23,6.90
2008,02,07,12,24,11.20
2008,02,07,12,25,13.00
2008,02,07,12,26,10.50
2008,02,07,12,27,5.60
2008,02,07,12,28,5.40
2008,02,07,12,29,8.00
2008,02,07,12,30,3.40
2008,02,07,12,31,5.30
2008,02,07,12,32,3.80
2008,02,07,12,33,10.20
2008,02,07,12,34,2.20
2008,02,07,12,35,12.70
2008,02,07,12,36,6.50
2008,02,07,12,37,4.90
2008,02,07,12,38,4.80
2008,02,07,12,39,9.40
2008,02,07,12,40,12.90
2008,02,07,12,41,10.50
2008,02,07,12,42,19.00
2008,02,07,12,43,10.90
2008,02,07,12,44,6.20
2008,02,07,12,45,7.70
2008,02,07,12,46,16.10
2008,02,07,12,47,7.50
2008,02,07,12,48,12.60
2008,02,07,12,49,11.60
2008,02,07,12,50,7.60
2008,02,07,12,51,6.40
2008,02,07,12,52,10.50
2008,02,07,12,53,10.60
2008,02,07,12,54,8.70
2008,02,07,12,55,15.30
2008,02,07,12,56,8.90
2008,02,07,12,57,13.00
2008,02,07,12,58,15.30
2008,02,07,12,59,15.40
2008,02,07,13,00,7.40
2008,02,07,13,01,8.00
2008,02,07,13,02,8.40
2008,02,07,13,03,12.20
2008,02,07,13,04,6.50
2008,02,07,13,05,7.10
2008,02,07,13,06,12.50
2008,02,07,13,07,8.50
2008,02,07,13,08,6.00
2008,02,07,13,09,11.00
2008,02,07,13,10,19.60
2008,02,07,13,11,17.40
2008,02,07,13,12,10.40
2008,02,07,13,13,16.40
2008,02,07,13,14,12.80
2008,02,07,13,15,22.20
2008,02,07,13,16,8.00
2008,02,07,13,17,12.50
2008,02,07,13,18,10.80
2008,02,07,13,19,9.20
2008,02,07,13,20,5.90
2008,02,07,13,21,5.60
2008,02,07,13,22,10.70
2008,02,07,13,23,7.40
2008,02,07,13,24,5.10
2008,02,07,13,25,7.90
2008,02,07,13,26,6.20
2008,02,07,13,27,5.40
2008,02,07,13,28,6.10
2008,02,07,13,29,4.70
2008,02,07,13,30,9.10
2008,02,07,13,31,7.40
2008,02,07,13,32,5.50
2008,02,07,13,33,15.00
2008,02,07,13,34,7.10
2008,02,07,13,35,5.20
2008,02,07,13,36,11.00
2008,02,07,13,37,8.50
2008,02,07,13,38,14.40
2008,02,07,13,39,8.40
2008,02,07,13,40,11.90
2008,02,07,13,41,8.10
2008,02,07,13,42,11.60
2008,02,07,13,43,11.30
2008,02,07,13,44,8.00
2008,02,07,13,45,8.80
2008,02,07,13,46,11.40
2008,02,07,13,47,11.60
2008,02,07,13,48,7.30
2008,02,07,13,49,9.00
2008,02,07,13,50,7.30
2008,02,07,13,51,9.10
2008,02,07,13,52,8.70
2008,02,07,13,53,7.70
2008,02,07,13,54,5.80
2008,02,07,13,55,8.10
2008,02,07,13,56,8.80
2008,02,07,13,57,4.20
2008,02,07,13,58,5.10
2008,02,07,13,59,12.90
2008,02,07,14,00,13.40
2008,02,07,14,01,11.30
2008,02,07,14,02,7.80
2008,02,07,14,03,14.80
2008,02,07,14,04,12.30
2008,02,07,14,05,11.50
2008,02,07,14,06,11.20
2008,02,07,14,07,13.50
2008,02,07,14,08,9.00
2008,02,07,14,09,7.30
2008,02,07,14,10,11.30
2008,02,07,14,11,7.10
2008,02,07,14,12,10.70
2008,02,07,14,13,15.30
2008,02,07,14,14,6.00
2008,02,07,14,15,9.30
2008,02,07,14,16,7.70
2008,02,07,14,17,11.90
2008,02,07,14,18,6.40
2008,02,07,14,19,15.60
2008,02,07,14,20,12.60
2008,02,07,14,21,10.60
2008,02,07,14,22,9.70
2008,02,07,14,23,13.10
2008,02,07,14,24,14.00
2008,02,07,14,25,8.90
2008,02,07,14,26,9.20
2008,02,07,14,27,5.60
2008,02,07,14,28,7.30
2008,02,07,14,29,7.50
2008,02,07,14,30,6.80
2008,02,07,14,31,5.90
2008,02,07,14,32,10.50
2008,02,07,14,33,8.00
2008,02,07,14,34,7.20
2008,02,07,14,35,8.20
2008,02,07,14,36,13.10
2008,02,07,14,37,11.30
2008,02,07,14,38,5.70
2008,02,07,14,39,8.10
2008,02,07,14,40,9.90
2008,02,07,14,41,10.50
2008,02,07,14,42,13.70
2008,02,07,14,43,18.10
2008,02,07,14,44,16.60
2008,02,07,14,45,8.40
2008,02,07,14,46,15.40
2008,02,07,14,47,19.40
2008,02,07,14,48,11.80
2008,02,07,14,49,13.40
2008,02,07,14,50,17.10
2008,02,07,14,51,15.00
2008,02,07,14,52,9.00
2008,02,07,14,53,6.10
2008,02,07,14,54,6.70
2008,02,07,14,55,7.70
2008,02,07,14,56,14.90
2008,02,07,14,57,13.50
2008,02,07,14,58,5.30
2008,02,07,14,59,11.40
2008,02,07,15,00,3.80
2008,02,07,15,01,13.90
2008,02,07,15,02,8.90
2008,02,07,15,03,4.30
2008,02,07,15,04,5.50
2008,02,07,15,05,7.60
2008,02,07,15,06,13.10
2008,02,07,15,07,9.80
2008,02,07,15,08,14.00
2008,02,07,15,09,6.30
2008,02,07,15,10,8.00
2008,02,07,15,11,6.50
2008,02,07,15,12,17.20
2008,02,07,15,13,6.70
2008,02,07,15,14,12.70
2008,02,07,15,15,12.40
2008,02,07,15,16,10.00
2008,02,07,15,17,10.60
2008,02,07,15,18,8.40
2008,02,07,15,19,9.10
2008,02,07,15,20,10.80
2008,02,07,15,21,12.30
2008,02,07,15,22,9.50
2008,02,07,15,23,7.10
2008,02,07,15,24,4.10
2008,02,07,15,25,7.70
2008,02,07,15,26,13.30
2008,02,07,15,27,5.80
2008,02,07,15,28,9.10
2008,02,07,15,29,3.90
2008,02,07,15,30,6.30
2008,02,07,15,31,10.50
2008,02,07,15,32,17.30
2008,02,07,15,33,10.60
2008,02,07,15,34,12.50
2008,02,07,15,35,7.50
2008,02,07,15,36,5.10
2008,02,07,15,37,7.60
2008,02,07,15,38,5.40
2008,02,07,15,39,6.40
2008,02,07,15,40,7.40
2008,02,07,15,41,7.90
2008,02,07,15,42,6.70
2008,02,07,15,43,8.10
2008,02,07,15,44,2.40
2008,02,07,15,45,4.80
2008,02,07,15,46,9.80
2008,02,07,15,47,12.20
2008,02,07,15,48,12.60
2008,02,07,15,49,8.40
2008,02,07,15,50,5.90
2008,02,07,15,51,8.70
2008,02,07,15,52,13.10
2008,02,07,15,53,12.40
2008,02,07,15,54,8.10
2008,02,07,15,55,14.80
2008,02,07,15,56,7.70
2008,02,07,15,57,12.60
2008,02,07,15,58,9.40
2008,02,07,15,59,7.60
2008,02,07,16,00,8.20
2008,02,07,16,01,8.70
2008,02,07,16,02,5.60
2008,02,07,16,03,6.00
2008,02,07,16,04,9.20
2008,02,07,16,05,10.50
2008,02,07,16,06,13.70
2008,02,07,16,07,8.80
2008,02,07,16,08,12.60
2008,02,07,16,09,11.40
2008,02,07,16,10,10.30
2008,02,07,16,11,11.20
2008,02,07,16,12,10.80
2008,02,07,16,13,8.50
2008,02,07,16,14,8.60
2008,02,07,16,15,6.60
2008,02,07,16,16,6.80
2008,02,07,16,17,10.00
2008,02,07,16,18,6.70
2008,02,07,16,19,7.00
2008,02,07,16,20,15.60
2008,02,07,16,21,5.20
2008,02,07,16,22,7.90
2008,02,07,16,23,5.30
2008,02,07,16,24,8.40
2008,02,07,16,25,11.60
2008,02,07,16,26,10.20
2008,02,07,16,27,7.20
2008,02,07,16,28,5.10
2008,02,07,16,29,4.00
2008,02,07,16,30,5.80
2008,02,07,16,31,5.80
2008,02,07,16,32,3.90
2008,02,07,16,33,6.60
2008,02,07,16,34,7.50
2008,02,07,16,35,9.90
2008,02,07,16,36,6.20
2008,02,07,16,37,5.40
2008,02,07,16,38,9.20
2008,02,07,16,39,5.40
2008,02,07,16,40,10.30
2008,02,07,16,41,7.00
2008,02,07,16,42,6.70
2008,02,07,16,43,7.50
2008,02,07,16,44,8.50
2008,02,07,16,45,6.80
2008,02,07,16,46,12.00
2008,02,07,16,47,10.30
2008,02,07,16,48,4.30
2008,02,07,16,49,6.70
2008,02,07,16,50,5.50
2008,02,07,16,51,5.50
2008,02,07,16,52,6.70
2008,02,07,16,53,4.40
2008,02,07,16,54,5.30
2008,02,07,16,55,3.10
2008,02,07,16,56,8.20
2008,02,07,16,57,6.80
2008,02,07,16,58,2.70
2008,02,07,16,59,2.50
2008,02,07,17,00,1.40
2008,02,07,17,01,3.50
2008,02,07,17,02,3.80
2008,02,07,17,03,4.30
2008,02,07,17,04,2.60
2008,02,07,17,05,7.60
2008,02,07,17,06,4.70
2008,02,07,17,07,4.10
2008,02,07,17,08,2.30
2008,02,07,17,09,1.50
2008,02,07,17,10,1.00
2008,02,07,17,11,2.80
2008,02,07,17,12,2.40
2008,02,07,17,13,2.90
2008,02,07,17,14,1.60
2008,02,07,17,15,1.20
2008,02,07,17,16,1.30
2008,02,07,17,17,1.90
2008,02,07,17,18,1.00
2008,02,07,17,19,1.50
2008,02,07,17,20,5.70
2008,02,07,17,21,13.90
2008,02,07,17,22,7.00
2008,02,07,17,23,4.80
2008,02,07,17,24,10.60
2008,02,07,17,25,6.00
2008,02,07,17,26,2.80
2008,02,07,17,27,1.50
2008,02,07,17,28,3.30
2008,02,07,17,29,1.30
2008,02,07,17,30,3.80
2008,02,07,17,31,8.50
2008,02,07,17,32,4.90
2008,02,07,17,33,4.70
2008,02,07,17,34,2.80
2008,02,07,17,35,5.00
2008,02,07,17,36,3.50